Location: Newark
(49.8348°N, 24.0280°E)
Time: 18:37:01
(UTC+00:00)

SR - Visible Passes

Search period start: 19 January 2020 00:00
Search period end: 29 January 2020 00:00
Orbit: 574 x 882 km, 66.7° (Epoch: 19 January)

Date Brightness Start Highest point End Pass type
(mag) Time Alt. Az. Time Alt. Az. Time Alt. Az.
19 Jan ? 02:38:54 15° N 02:38:54 15° N 02:41:22 10° NNE visible
19 Jan ? 04:18:18 10° NNW 04:22:31 21° NNE 04:26:40 10° ENE visible
20 Jan ? 01:50:32 12° NNE 01:50:32 12° NNE 01:51:10 10° NNE visible
20 Jan ? 03:29:56 14° N 03:32:07 17° NNE 03:35:45 10° NE visible
20 Jan ? 05:10:33 10° NNW 05:15:55 37° NE 05:20:56 10° ESE visible
21 Jan ? 02:41:35 15° N 02:41:38 15° N 02:44:53 10° NE visible
21 Jan ? 04:20:59 10° NNW 04:25:47 27° NNE 04:30:23 10° E visible
22 Jan ? 01:53:14 13° NNE 01:53:14 13° NNE 01:54:19 10° NNE visible
22 Jan ? 03:32:39 15° NNW 03:35:30 20° NNE 03:39:34 10° ENE visible
22 Jan ? 05:13:16 10° NNW 05:18:54 55° NE 05:24:07 10° SE visible
23 Jan ? 02:44:19 16° N 02:45:05 17° NNE 02:48:38 10° NE visible
23 Jan ? 04:23:43 10° NNW 04:28:56 36° NE 04:33:52 10° ESE visible
24 Jan ? 01:56:01 14° NNE 01:56:01 14° NNE 01:57:48 10° NE visible
24 Jan ? 03:35:25 16° NNW 03:38:46 26° NNE 03:43:18 10° E visible
24 Jan ? 05:16:00 10° NW 05:21:44 86° NE 05:26:58 10° SE visible
25 Jan ? 02:47:09 18° N 02:48:28 20° NNE 02:52:28 10° ENE visible
25 Jan ? 04:26:33 11° NNW 04:31:55 53° NE 04:37:05 10° ESE visible
26 Jan ? 01:58:55 16° NNE 01:58:55 16° NNE 02:01:32 10° NE visible
26 Jan ? 03:38:19 18° NNW 03:41:56 35° NE 03:46:48 10° ESE visible
26 Jan ? 05:18:52 10° NW 05:24:24 59° WSW 05:29:27 10° SSE visible
27 Jan ? 01:10:42 10° NE 01:10:42 10° NE 01:10:43 10° NE visible
27 Jan ? 02:50:07 22° N 02:51:46 25° NNE 02:56:12 10° E visible
27 Jan ? 04:29:32 12° NW 04:34:46 82° NE 04:39:58 10° SE visible
28 Jan ? 02:01:58 19° NNE 02:01:58 19° NNE 02:05:21 10° ENE visible
28 Jan ? 03:41:24 21° NNW 03:44:56 50° NE 03:50:03 10° ESE visible
28 Jan ? 05:21:53 10° NW 05:26:53 34° WSW 05:31:28 10° S visible
